Epoch 1996 Nov. 13.0 TT = JDT 2450400.5 T 1996 Oct. 29.99483 TT MPC q 1.7026847 (2000.0) P Q n 0.07413995 Peri. 356.88703 +0.99620601 +0.08210844 a 5.6117870 Node 357.70072 -0.05583243 +0.34879628 e 0.6965878 Incl. 45.96160 -0.06675570 +0.93359486 P 13.29
m1 = 8.5 + 5 logΔ + 15.0 log r